Weather History for KPRC - October, 2012

Change the Weather History Date:

Monday, October 8, 2012

  Actual Average Record
Temperature  
Mean Temperature 62 °F 59 °F  
Max Temperature 77 °F 74 °F 91 °F (1996)
Min Temperature 48 °F 44 °F 31 °F (1970)
Degree Days  
Heating Degree Days 2    
Month to date heating degree days  
Since 1 July heating degree days  
Cooling Degree Days 0    
Month to date cooling degree days  
Year to date cooling degree days  
Growing Degree Days 12 (Base 50)    
Moisture  
Dew Point 37 °F    
Average Humidity 40    
Maximum Humidity 71    
Minimum Humidity 17    
Precipitation  
Precipitation 0.00 in 0.02 in 0.59 in (1960)
Month to date precipitation 0.28  
Year to date precipitation 11.45  
Sea Level Pressure  
Sea Level Pressure 29.91 in    
Wind  
Wind Speed 5 mph (South)    
Max Wind Speed 14 mph    
Max Gust Speed 21 mph    
Visibility 10 miles    
Events      
T = Trace of Precipitation, MM = Missing Value Source: NWS Daily Summary

Daily Weather History Graph

Daily Weather History Graph

Search for Another Location

Airport or City:

Trip Planner

Search our weather history database for the weather conditions in past years. The results will help you decide how hot, cold, wet, or windy it might be!

Date:

Astronomy

Oct. 08, 2012 Rise Set
Actual Time 6:30 AM MST 6:03 PM MST
Civil Twilight 6:04 AM MST 6:28 PM MST
Nautical Twilight 5:35 AM MST 6:57 PM MST
Astronomical Twilight 5:06 AM MST 7:26 PM MST
Moon No Moon Rise 1:40 PM MST (10/8)
Length of Visible Light 12h 23m
Length of Day
11h 33m
Last Quarter, 45% of the Moon is Illuminated
Oct 8
Last Quarter
Oct 15
New
Oct 21
First Quarter
Oct 29
Full
Nov 6
Last Quarter

Hourly Weather History & Observations

Time (MST) Temp. Dew Point Humidity Pressure Visibility Wind Dir Wind Speed Gust Speed Precip Events Conditions
12:53 AM 59.0 °F 37.9 °F 46% 29.89 in 10.0 mi Calm Calm - N/A   Clear
1:53 AM 54.0 °F 39.0 °F 57% 29.90 in 10.0 mi South 6.9 mph - N/A   Clear
2:53 AM 54.0 °F 39.0 °F 57% 29.88 in 10.0 mi South 8.1 mph - N/A   Clear
3:53 AM 53.1 °F 39.0 °F 59% 29.89 in 10.0 mi South 4.6 mph - N/A   Clear
4:53 AM 51.1 °F 39.0 °F 63% 29.91 in 10.0 mi Calm Calm - N/A   Clear
5:53 AM 50.0 °F 39.0 °F 66% 29.93 in 10.0 mi SSW 3.5 mph - N/A   Clear
6:53 AM 48.0 °F 39.0 °F 71% 29.96 in 10.0 mi South 3.5 mph - N/A   Clear
7:53 AM 57.9 °F 39.9 °F 51% 29.96 in 10.0 mi SSE 3.5 mph - N/A   Clear
8:53 AM 66.0 °F 39.9 °F 38% 29.95 in 10.0 mi NNE 3.5 mph - N/A   Clear
9:53 AM 71.1 °F 39.0 °F 31% 29.94 in 10.0 mi Variable 3.5 mph - N/A   Clear
10:53 AM 73.0 °F 39.0 °F 29% 29.93 in 10.0 mi SSW 9.2 mph 17.3 mph N/A   Clear
11:53 AM 73.9 °F 37.9 °F 27% 29.91 in 10.0 mi South 11.5 mph 17.3 mph N/A   Partly Cloudy
12:53 PM 75.9 °F 37.0 °F 24% 29.88 in 10.0 mi South 11.5 mph 17.3 mph N/A   Clear
1:53 PM 77.0 °F 33.1 °F 20% 29.87 in 10.0 mi South 13.8 mph 18.4 mph N/A   Partly Cloudy
2:53 PM 77.0 °F 28.9 °F 17% 29.86 in 10.0 mi WSW 12.7 mph 20.7 mph N/A   Clear
3:53 PM 75.9 °F 33.1 °F 21% 29.86 in 10.0 mi SSW 9.2 mph 18.4 mph N/A   Clear
4:53 PM 73.9 °F 33.1 °F 22% 29.88 in 10.0 mi SW 12.7 mph - N/A   Clear
5:53 PM 71.1 °F 36.0 °F 28% 29.89 in 10.0 mi SW 9.2 mph - N/A   Clear
6:53 PM 68.0 °F 35.1 °F 30% 29.91 in 10.0 mi SW 10.4 mph - N/A   Clear
7:53 PM 64.9 °F 34.0 °F 32% 29.90 in 10.0 mi SSE 5.8 mph - N/A   Clear
8:53 PM 60.1 °F 36.0 °F 41% 29.91 in 10.0 mi South 5.8 mph - N/A   Clear
9:53 PM 59.0 °F 37.0 °F 44% 29.91 in 10.0 mi South 5.8 mph - N/A   Clear
10:53 PM 60.1 °F 37.0 °F 42% 29.91 in 10.0 mi South 6.9 mph - N/A   Clear
11:53 PM 59.0 °F 37.0 °F 44% 29.90 in 10.0 mi SSE 3.5 mph - N/A   Clear